FOX-1CLIFF (AO-95)

Last updated on Tue Oct 28 2025 00:03:13 GMT+0000 (Coordinated Universal Time)

1 43770U 18099N 25300.41525640 .00012404 00000+0 57215-3 0 9998 2 43770 97.4740 357.0784 0011472 87.2602 272.9946 15.20326308377778
UTC large
Height (km)
Speed (km/s)
/
Latitude / Longitude
Inclination (degrees)
Orbital Period (minutes)
Azimuth
Elevation
Range (km)
Doppler Factor

Next 0 passes for location: London (51.5072 / 0.1276)

Sorry there are no passes over London.